Location: Del Amo
(33.8464°N, 118.2104°W)
Time: 06:53:12
(UTC+00:00)

ARIANE 6 FM1 Upper Stage - Pass Details

Date: 16 August 2024
Orbit: 566 x 594 km, 62.0° (Epoch: 19 September)

Event Time Altitude Azimuth Distance (km) Brightness Sun altitude
Rises 12:29:39 0° 173° (S) 2,767 6.0 -9.8°
Reaches altitude 10° 12:32:30 10° 153° (SSE) 1,881 5.4 -9.3°
Maximum altitude 12:35:14 17° 112° (ESE) 1,499 5.5 -8.8°
Drops below altitude 10° 12:38:00 10° 72° (ENE) 1,902 7.1 -8.2°
Sets 12:40:54 0° 52° (NE) 2,813 8.0 -7.7°
